• In Hungary
  • List of Countries
  • For 7 days
  • Water Temperature
  • Satellite Maps
  • Weather Map
  • News
  • Weather Widgets
  • user-avatar
    Login

    Hourly Weather Pinechowka

    Today, 19 July, Thursday

    Time Temperature Precipitation Wind Pressure Humidity
    00:00 +20°C° 0.3 mm 5 mps 738 mmHg 95%
    01:00 +20°C° 0.3 mm 5 mps 738 mmHg 95%
    02:00 +19°C° 0.2 mm 5 mps 738 mmHg 95%
    03:00 +19°C° 0.2 mm 5 mps 738 mmHg 95%
    04:00 +19°C° 0.2 mm 5 mps 738 mmHg 95%
    05:00 +19°C° 0.3 mm 5 mps 738 mmHg 95%
    06:00 +19°C° 0.3 mm 5 mps 739 mmHg 94%
    07:00 +19°C° 0.3 mm 5 mps 739 mmHg 93%
    08:00 +20°C° 0.3 mm 5 mps 739 mmHg 93%
    09:00 +20°C° 0.3 mm 5 mps 739 mmHg 92%
    10:00 +20°C° 0.3 mm 5 mps 739 mmHg 91%
    11:00 +21°C° 0.1 mm 5 mps 739 mmHg 88%
    12:00 +21°C° 0.1 mm 5 mps 740 mmHg 86%
    13:00 +22°C° 0.1 mm 5 mps 740 mmHg 83%
    14:00 +22°C° 0.2 mm 5 mps 739 mmHg 82%
    15:00 +23°C° 0.2 mm 5 mps 739 mmHg 81%
    16:00 +23°C° 0.2 mm 5 mps 739 mmHg 80%
    17:00 +22°C° 0.2 mm 5 mps 739 mmHg 83%
    18:00 +21°C° 0.2 mm 4 mps 739 mmHg 86%
    19:00 +21°C° 0.2 mm 4 mps 739 mmHg 88%
    20:00 +20°C° 0.2 mm 4 mps 739 mmHg 91%
    21:00 +19°C° 0.2 mm 4 mps 740 mmHg 93%
    22:00 +19°C° 0.2 mm 4 mps 740 mmHg 95%
    23:00 +19°C° 0 mm 4 mps 740 mmHg 95%

    Tomorrow, 20 July, Friday

    Time Temperature Precipitation Wind Pressure Humidity
    00:00 +19°C° 0 mm 4 mps 740 mmHg 95%
    01:00 +19°C° 0 mm 4 mps 740 mmHg 95%
    02:00 +18°C° 0.1 mm 4 mps 740 mmHg 96%
    03:00 +18°C° 0.1 mm 4 mps 740 mmHg 96%
    04:00 +18°C° 0.1 mm 4 mps 740 mmHg 96%
    05:00 +18°C° 0.1 mm 4 mps 740 mmHg 96%
    06:00 +18°C° 0.1 mm 4 mps 740 mmHg 95%
    07:00 +18°C° 0.1 mm 4 mps 741 mmHg 94%
    08:00 +19°C° 0.2 mm 4 mps 741 mmHg 92%
    09:00 +19°C° 0.2 mm 4 mps 741 mmHg 91%
    10:00 +19°C° 0.2 mm 4 mps 741 mmHg 89%
    11:00 +21°C° 0.2 mm 4 mps 741 mmHg 84%
    12:00 +22°C° 0.2 mm 4 mps 741 mmHg 78%
    13:00 +23°C° 0.2 mm 4 mps 740 mmHg 73%
    14:00 +25°C° 0.1 mm 4 mps 740 mmHg 69%
    15:00 +25°C° 0.1 mm 4 mps 740 mmHg 66%
    16:00 +26°C° 0.1 mm 5 mps 740 mmHg 62%
    17:00 +25°C° 0.1 mm 4 mps 740 mmHg 68%
    18:00 +22°C° 0.1 mm 3 mps 740 mmHg 73%
    19:00 +21°C° 0.1 mm 2 mps 740 mmHg 78%
    20:00 +20°C° 0 mm 2 mps 740 mmHg 81%
    21:00 +19°C° 0 mm 2 mps 740 mmHg 84%
    22:00 +18°C° 0 mm 2 mps 741 mmHg 87%
    23:00 +18°C° 0 mm 2 mps 741 mmHg 88%

    Day after tomorrow, 21 July, Saturday

    Time Temperature Precipitation Wind Pressure Humidity
    00:00 +17°C° 0 mm 2 mps 740 mmHg 88%
    01:00 +17°C° 0 mm 2 mps 740 mmHg 89%
    02:00 +16°C° 0 mm 2 mps 740 mmHg 90%
    03:00 +16°C° 0 mm 2 mps 740 mmHg 92%
    04:00 +16°C° 0 mm 2 mps 740 mmHg 93%
    05:00 +18°C° 0 mm 1 mps 740 mmHg 88%
    06:00 +20°C° 0 mm 1 mps 741 mmHg 82%
    07:00 +21°C° 0 mm 1 mps 741 mmHg 77%
    08:00 +22°C° 0 mm 1 mps 741 mmHg 70%
    09:00 +24°C° 0 mm 1 mps 741 mmHg 63%
    10:00 +25°C° 0 mm 2 mps 741 mmHg 56%
    11:00 +26°C° 0 mm 2 mps 740 mmHg 53%
    12:00 +26°C° 0 mm 2 mps 740 mmHg 50%
    13:00 +27°C° 0 mm 2 mps 740 mmHg 46%
    14:00 +27°C° 0 mm 2 mps 740 mmHg 47%
    15:00 +27°C° 0 mm 2 mps 739 mmHg 47%
    16:00 +27°C° 0 mm 2 mps 739 mmHg 48%
    17:00 +26°C° 0 mm 2 mps 739 mmHg 54%
    18:00 +24°C° 0 mm 2 mps 739 mmHg 60%
    19:00 +23°C° 0 mm 1 mps 739 mmHg 66%
    20:00 +22°C° 0 mm 1 mps 739 mmHg 69%
    21:00 +20°C° 0 mm 1 mps 739 mmHg 71%
    22:00 +19°C° 0 mm 1 mps 739 mmHg 74%
    23:00 +19°C° 0 mm 1 mps 739 mmHg 76%

    22 July, Sunday

    Time Temperature Precipitation Wind Pressure Humidity
    00:00 +16°C° 0 mm 0 mps 739 mmHg 77%
    01:00 +16°C° 0 mm 0 mps 739 mmHg 79%
    02:00 +16°C° 0 mm 0 mps 739 mmHg 81%
    03:00 +15°C° 0 mm 0 mps 739 mmHg 82%
    04:00 +15°C° 0 mm 0 mps 739 mmHg 83%
    05:00 +17°C° 0 mm 0 mps 739 mmHg 78%
    06:00 +18°C° 0 mm 0 mps 739 mmHg 73%
    07:00 +20°C° 0 mm 0 mps 739 mmHg 68%
    08:00 +23°C° 0 mm 1 mps 739 mmHg 63%
    09:00 +25°C° 0 mm 1 mps 739 mmHg 58%
    10:00 +26°C° 0 mm 1 mps 739 mmHg 53%
    11:00 +27°C° 0 mm 2 mps 738 mmHg 51%
    12:00 +27°C° 0 mm 2 mps 738 mmHg 48%
    13:00 +28°C° 0 mm 2 mps 738 mmHg 46%
    14:00 +28°C° 0 mm 2 mps 738 mmHg 46%
    15:00 +28°C° 0 mm 2 mps 738 mmHg 46%
    16:00 +28°C° 0 mm 2 mps 738 mmHg 47%
    17:00 +26°C° 0 mm 2 mps 738 mmHg 53%
    18:00 +25°C° 0 mm 2 mps 738 mmHg 59%
    19:00 +23°C° 0 mm 2 mps 738 mmHg 66%
    20:00 +21°C° 0 mm 2 mps 738 mmHg 68%
    21:00 +20°C° 0 mm 2 mps 738 mmHg 71%
    22:00 +19°C° 0 mm 2 mps 738 mmHg 73%
    23:00 +19°C° 0 mm 2 mps 738 mmHg 76%

    23 July, Monday

    Time Temperature Precipitation Wind Pressure Humidity
    00:00 +18°C° 0 mm 2 mps 738 mmHg 78%
    01:00 +18°C° 0 mm 2 mps 739 mmHg 81%
    02:00 +17°C° 0 mm 2 mps 739 mmHg 82%
    03:00 +17°C° 0 mm 2 mps 739 mmHg 83%
    04:00 +17°C° 0 mm 2 mps 739 mmHg 85%
    05:00 +18°C° 0 mm 2 mps 739 mmHg 82%
    06:00 +19°C° 0 mm 2 mps 740 mmHg 80%
    07:00 +21°C° 0 mm 2 mps 740 mmHg 77%
    08:00 +22°C° 0.1 mm 3 mps 740 mmHg 72%
    09:00 +24°C° 0.1 mm 3 mps 740 mmHg 66%
    10:00 +25°C° 0.1 mm 4 mps 740 mmHg 61%
    11:00 +26°C° 0.2 mm 4 mps 740 mmHg 59%
    12:00 +26°C° 0.2 mm 4 mps 740 mmHg 57%
    13:00 +27°C° 0.2 mm 4 mps 740 mmHg 55%
    14:00 +27°C° 0.2 mm 4 mps 740 mmHg 56%
    15:00 +27°C° 0.2 mm 4 mps 740 mmHg 56%
    16:00 +27°C° 0.2 mm 4 mps 740 mmHg 56%
    17:00 +25°C° 0.1 mm 3 mps 740 mmHg 60%
    18:00 +24°C° 0.1 mm 3 mps 740 mmHg 65%
    19:00 +23°C° 0.1 mm 2 mps 740 mmHg 69%
    20:00 +21°C° 0 mm 2 mps 741 mmHg 71%
    21:00 +20°C° 0 mm 2 mps 741 mmHg 72%
    22:00 +19°C° 0 mm 2 mps 741 mmHg 73%
    23:00 +18°C° 0 mm 2 mps 741 mmHg 77%

    24 July, Tuesday

    Time Temperature Precipitation Wind Pressure Humidity
    00:00 +18°C° 0 mm 2 mps 741 mmHg 81%
    01:00 +17°C° 0 mm 2 mps 741 mmHg 85%
    02:00 +17°C° 0 mm 2 mps 741 mmHg 88%
    03:00 +16°C° 0 mm 2 mps 741 mmHg 90%
    04:00 +16°C° 0 mm 2 mps 742 mmHg 92%
    05:00 +18°C° 0 mm 2 mps 742 mmHg 87%
    06:00 +19°C° 0 mm 2 mps 742 mmHg 82%
    07:00 +21°C° 0 mm 2 mps 743 mmHg 77%
    08:00 +23°C° 0 mm 2 mps 743 mmHg 71%
    09:00 +25°C° 0 mm 2 mps 743 mmHg 65%
    10:00 +26°C° 0 mm 2 mps 743 mmHg 59%
    11:00 +27°C° 0.1 mm 2 mps 742 mmHg 56%
    12:00 +27°C° 0.1 mm 2 mps 742 mmHg 53%
    13:00 +28°C° 0.1 mm 2 mps 742 mmHg 51%
    14:00 +28°C° 0 mm 2 mps 742 mmHg 51%
    15:00 +28°C° 0 mm 2 mps 742 mmHg 52%
    16:00 +28°C° 0 mm 3 mps 742 mmHg 52%
    17:00 +27°C° 0 mm 2 mps 742 mmHg 58%
    18:00 +25°C° 0 mm 2 mps 742 mmHg 63%
    19:00 +24°C° 0 mm 2 mps 742 mmHg 68%
    20:00 +23°C° 0 mm 2 mps 742 mmHg 72%
    21:00 +21°C° 0 mm 2 mps 743 mmHg 75%
    22:00 +19°C° 0 mm 2 mps 743 mmHg 78%
    23:00 +20°C° 0 mm 1 mps 743 mmHg 80%
    Show more